Location: Perryvale
(54.4667°N, 113.3833°W)
Time: 19:20:17
(UTC+00:00)

SR - Pass Details

Date: 23 May 2024
Orbit: 580 x 858 km, 66.7° (Epoch: 19 June)

Event Time Altitude Azimuth Distance (km) Brightness Sun altitude
Rises 06:34:49 0° 309° (NW) 2,999 ? -13.9°
Reaches altitude 10° 06:37:44 10° 326° (NW) 2,036 ? -14.0°
Maximum altitude 06:41:07 20° 14° (NNE) 1,443 ? -14.1°
Drops below altitude 10° 06:44:21 10° 62° (ENE) 1,945 ? -14.2°
Sets 06:47:04 0° 80° (E) 2,822 ? -14.3°
